ISS (25544 NORAD) Tracking and Keplerian Element Data

This shows tracking and keplerian element data for the satellite.

Feedback or suggestion? Click here.




ElementValue
Catalog25544
NameISS
Epoch Orbit2585
Epoch Day21.5024176
Epoch Year2021
RAAN348.2437
Inclination51.6426
Eccentricity3.93E-05
Argument of Perigee322.3345
Mean Anonmoly37.7778
Mean Motion15.49313651
Decay Rate0.00016717
L11 25544U 98067A 21021.50241760 .00016717 00000-0 10270-3 0 9064
L22 25544 51.6426 348.2437 0000393 322.3345 37.7778 15.49313651 25851

Live tracking and technical data element details for ISS (NORAD 25544). ISS can be tracked NOW for your location showing map with azimuth and elevation plus other details from your city location.

Track the satellite on the map from your city or location and see movement details for azimuth, elevation, latitude, longitude, range, height, and movement on the map or in text.







IsCatalogInMostPopularTable: catalog: 25544, numindb: 78456
Update: records affected: 2



GetName: 25544 ISS

Hit Count: updated at: Sat, 23 Jan 2021 04:25:03 GMT